User: anonymous   Login
Location: Unspecified
(0.0000°N, 0.0000°E)
Time: 02:05:07
(UTC+00:00)
Language:

Uosat F - Orbit

View from above orbital plane
View from above orbital plane
View from above satellite
View from above satellite

Ground track
Ground track

The orbit data is extracted from the following two-line orbital elements,

1 21575U 91050B   18055.09636393  .00000005  00000-0  16180-4 0  9998
2 21575  98.7413  82.2964 0006213 270.4123  89.6352 14.40834338397556
Epoch (UTC): 24 February 2018 02:18:45
Eccentricity: 0.0006213
inclination: 98.7413°
perigee height: 751 km
apogee height: 760 km
right ascension of ascending node: 82.2964°
argument of perigee: 270.4123°
revolutions per day: 14.40834338
mean anomaly at epoch: 89.6352°
orbit number at epoch: 39755

The dashed part of the orbit path shows where the satellite is in the earth's shadow,  

DLR